Location: Lake Almanor
(40.2485°N, 121.1442°W)
Time: 18:01:36
(UTC-08:00)

N. Korean satellite - Pass Details

Date: 29 January 2020
Orbit: 456 x 505 km, 97.2° (Epoch: 25 February)

Event Time Altitude Azimuth Distance (km) Brightness Sun altitude
Rises 05:26:58 0° 19° (NNE) 2,557 10.4 -21.0°
Reaches altitude 10° 05:29:07 10° 28° (NNE) 1,680 9.5 -20.6°
Maximum altitude 05:32:32 39° 98° (E) 752 8.0 -20.0°
Drops below altitude 10° 05:35:58 10° 169° (SSE) 1,691 9.5 -19.3°
Sets 05:38:08 0° 177° (S) 2,575 10.4 -18.9°
